KPAHKMKY

Guest
Details From KPAH - BARKLEY RGNL
To KMKY - Marco Island
Flight Number -
Tags decoded
Created
Modified
Stats Distance 765 nm / 1,417 km
Max Altitude 0 ft / 0 m
Waypoints 5
Social Downloads 1
Likes 0
Share VATSIM

Download

Looking for another format? Having issues loading an existing format? Contact us
Advertisement - Login to hide

Notes

Requested: KPAH CNG PIE ZEILR ZEILR3 KMKY Unmatched points: ZEILR3

Route

KPAH CNG PIE ZEILR KMKY

ID Type Via Altitude Latitude Longitude Leg Dist Tot Dist Heading (true) Name
O KPAH APT - 0 ft / 0 m 37.06032˚ -88.77288˚ - 0 nm - BARKLEY RGNL
CNG VOR - 0 ft / 0 m 37.00861˚ -88.83692˚ 4 nm 4 nm 225° / 225° CUNNINGHAM VORTAC
PIE VOR - 0 ft / 0 m 27.90778˚ -82.68431˚ 628 nm 633 nm 149° / 152° ST PETERSBURG VORTAC
ZEILR FIX - 0 ft / 0 m 26.63699˚ -82.37436˚ 78 nm 711 nm 168° / 168° -
O KMKY APT - 0 ft / 0 m 25.99504˚ -81.67253˚ 53 nm 765 nm 135° / 136° Marco Island

Altitude Profile

Advertisement - Login to hide

Weather


0- 5 10 15 20 25 30 35+ Temperature / ° C

Clouds and Precipitation
Forecast for 2018-05-21 12:00 UTC. Updated 25 minutes ago

Ground ~20,000 ft ~40,000 ft Winds

KPAH

Details ICAO KPAH (PAH)
Name BARKLEY RGNL
Region United States
Timezone America/Chicago (UTC-5.0)
Stats Elevation 410 ft / 125 m (AMSL)
Location 37.060320° -88.772883°
Runways 2
Magnetic Variation 2.463° W

METAR

KPAH 210853Z AUTO 25008KT 7SM -RA FEW047 BKN075 OVC100 21/19 A3009 RMK AO2 RAB0757 SLP186 P0001 60001 T02060189 53006 $

Decode

TAF

TAF KPAH 210520Z 2106/2206 VRB03KT P6SM SCT060 BKN110 TEMPO 2109/2113 4SM -SHRA FM211800 17005KT P6SM FEW025 BKN080 PROB30 2118/2124 4SM -TSRA BKN025CB FM220000 18004KT P6SM FEW035 BKN100

Decode

Departure Runways

ID Width Length Bearing (true) Bearing (mag) Surface Threshold Offset Overrun Length
04 150 ft / 46 m 6,500 ft / 1,981 m 43.57° 46.03° Asphalt 0 ft / 0 m 0 ft / 0 m
14 150 ft / 46 m 5,502 ft / 1,677 m 139.56° 142.02° Asphalt 0 ft / 0 m 0 ft / 0 m
22 150 ft / 46 m 6,500 ft / 1,981 m 223.58° 226.04° Asphalt 0 ft / 0 m 0 ft / 0 m
32 150 ft / 46 m 5,502 ft / 1,677 m 319.56° 322.02° Asphalt 0 ft / 0 m 0 ft / 0 m

KMKY

Details ICAO KMKY (MRK)
Name Marco Island
Region United States
Timezone America/New_York (UTC-4.0)
Stats Elevation 5 ft / 2 m (AMSL)
Location 25.995040° -81.672529°
Runways 1
Magnetic Variation 5.857° W

METAR

KMKY 210856Z AUTO 09004KT 10SM OVC080 22/22 A3001 RMK AO2 SLP161 T02220217 55006

Decode

TAF

Not found

Destination Runways

ID Width Length Bearing (true) Bearing (mag) Surface Threshold Offset Overrun Length
17 100 ft / 30 m 5,019 ft / 1,530 m 167.77° 173.63° Asphalt 0 ft / 0 m 0 ft / 0 m
35 100 ft / 30 m 5,019 ft / 1,530 m 347.77° 353.63° Asphalt 0 ft / 0 m 0 ft / 0 m